Simultaneous Nadir Overpasses (SNOs) Predictions

Prediction of SNOs between NOAA-19 and TERRA Satellite Orbit:

Table of predicted SNOs for the next 14.0 days since TLE Epoch: 6/8/2024
Index Date (NOAA-19) Time (NOAA-19) Lat,Lon (NOAA-19) SZA (NOAA-19 ) Date (TERRA) Time (TERRA) Lat,Lon (TERRA) SZA (TERRA ) Distance(km) Time Diff (sec)
1 06/10/2024 06:35:26 -78.77, -87.05 124.08 06/10/2024 06:36:18 -78.76, -87.18 124.09 3.06 52
2 06/10/2024 07:26:16 78.95, 81.56 56.16 06/10/2024 07:25:33 78.96, 81.58 56.16 0.54 43
3 06/12/2024 10:25:18 78.82, 35.92 55.85 06/12/2024 10:25:22 78.82, 35.84 55.84 1.75 4
4 06/14/2024 13:24:22 78.61, -10.23 55.47 06/14/2024 13:25:12 78.61, -10.22 55.48 0.31 50
5 06/14/2024 14:15:17 -78.85, 158.64 124.23 06/14/2024 14:14:29 -78.85, 158.68 124.24 0.88 48
6 06/16/2024 17:14:18 -78.72, 113.04 124.48 06/16/2024 17:14:17 -78.70, 112.95 124.50 2.54 1
7 06/18/2024 20:13:20 -78.54, 67.16 124.75 06/18/2024 20:14:05 -78.53, 67.10 124.75 1.53 45
8 06/18/2024 21:04:11 78.76,-124.07 55.53 06/18/2024 21:03:19 78.77,-124.02 55.53 1.02 52



Historial Predications of SNOs between NOAA-19 and TERRA
